x

La Perouse Bank (46206) Wave Buoy

7:00 - Sun 22nd Jan 2017 All times are PST. -8 hours from GMT.

  • Sig Wave height 18.0ft
  • Peak Period 14s
  • Wind
    27mph, 31mph gusts
  • Sea Temp 55°f
  • Aire Temp 47°f
  • Sea Pressure 998.6mb
  • La Perouse Bank
  • La Perouse Bank

More Historic Weather Station data

Upgrade to MSW Pro to gain access to the past 30 days of data for over 8000 Wavebouys and Weather Stations around the globe.

Join Pro

Comparision Forecast

View Surf forecast
   
dom 01/22 7:00 18ft 14s 27 31 mph 998.6mb 55f 47f
6:00 17ft 14s 25 31 mph 998.2mb 52f 47f
5:00  -   -  27
mph
- - 48f
4:00 20.5ft 14s 29 36 mph 997.3mb 52f 47f
3:00 18.5ft 12s 29 38 mph 996.9mb 53f 47f
2:00 13ft 9s 31 38 mph 996.1mb 61f 46f
1:00 12ft 8s 29 38 mph 995.8mb 53f 46f
12:00 11.5ft 8s 34 40 mph 995.2mb 53f 47f
11:00 11ft 7s 34 43 mph 995mb 52f 49f
10:00 11ft 14s 34 43 mph 994.1mb 53f 47f
8:00 10.5ft 13s 29 40 mph 992.6mb 53f 48f
7:00 10ft 13s 29 38 mph 991.6mb 55f 49f
6:00 12ft 15s 29 36 mph 991.4mb 53f 49f
5:00 12ft 14s 22 31 mph 992.3mb 57f 48f
4:00 12ft 13s 22 29 mph 994mb 53f 47f
3:00 13ft 15s 22 31 mph 995.6mb 59f 47f
2:00 14.5ft 14s 25 31 mph 996.6mb 54f 46f
1:00 14ft 15s 27 34 mph 997.2mb 55f 47f
12:00 14.5ft 14s 25 31 mph 997.8mb 53f 47f
sáb 01/21 11:00 14ft 16s 25 31 mph 998mb 54f 48f
10:00 14ft 16s 27 34 mph 997.6mb 54f 48f
9:00 13ft 16s 22 29 mph 997.7mb 55f 48f
8:00 14ft 16s 22 25 mph 997.4mb 53f 48f
7:00 14ft 16s 20 27 mph 996.9mb 53f 49f
6:00 14ft 17s 25 29 mph 996.1mb 56f 48f
5:00 15ft 17s 25 31 mph 995.7mb 58f 47f
4:00 13.5ft 16s 25 29 mph 995mb 54f 47f
3:00 14ft 16s 25 29 mph 994.4mb 54f 47f
2:00 15ft 16s 25 29 mph 993.7mb 54f 47f
1:00 15.5ft 14s 25 31 mph 993.1mb 55f 48f
12:00 15.5ft 17s 22 29 mph 992.8mb 53f 47f
11:00 15.5ft 16s 22 29 mph 992.3mb 52f 47f
10:00 17.5ft 17s 25 31 mph 991.6mb 56f 47f
9:00 15ft 16s 22 29 mph 990.9mb 54f 47f
8:00 15ft 15s 20 27 mph 990.2mb 53f 47f
7:00 14.5ft 18s 22 29 mph 989.3mb 52f 47f
6:00 13ft 18s 20 27 mph 989mb 53f 47f
4:00 12.5ft 17s 22 27 mph 988.3mb 56f 47f
3:00 11ft 18s 20 27 mph 988.2mb 54f 47f
2:00 10.5ft 18s 20 27 mph 988mb 53f 46f
1:00 10ft 14s 20 25 mph 987.7mb 58f 46f
12:00 10ft 11s 20 22 mph 987.4mb 53f 47f
vie 01/20 11:00 10ft 11s 20 27 mph 987.1mb 52f 47f
10:00 10.5ft 12s 20 25 mph 986.9mb 52f 48f
9:00 12ft 11s 13 16 mph 986.5mb 54f 48f
8:00 11.5ft 10s 16 18 mph 985.9mb 54f 48f
7:00 11ft 14s 16 20 mph 985.5mb 54f 48f
6:00 11.5ft 14s 16 18 mph 985.1mb 54f 49f
5:00 11ft 16s 16 20 mph 984.8mb 53f 49f
4:00 11ft 15s 18 22 mph 984.5mb 56f 49f
2:00 12ft 16s 18 20 mph 983.9mb 57f 48f
1:00 12ft 16s 18 25 mph 983.9mb 51f 50f
12:00 11ft 16s 18 22 mph 984.5mb 51f 50f
11:00 11ft 16s 20 27 mph 984.7mb 56f 49f
10:00 11ft 14s 20 27 mph 985.3mb 52f 49f
9:00 12ft 16s 20 29 mph 985.6mb 54f 48f
8:00 14ft 16s 25 34 mph 985.9mb 54f 47f
7:00 13.5ft 16s 20 25 mph 986.3mb 54f 46f
6:00 13.5ft 15s 20 25 mph 986.8mb 56f 47f
4:00  -   -  22
mph
988.8mb 57f 46f
3:00  -   -  22
mph
- - -
2:00 15ft 15s 25 31 mph 990.7mb 53f 47f
1:00 13ft 16s 27 31 mph 991.2mb 53f 47f
12:00 13ft 13s 25 31 mph 991.8mb 50f 47f
jue 01/19 11:00  -   -  20
mph
992.6mb 54f 48f
10:00 13.5ft 14s 18 20 mph 993.2mb 52f 48f
9:00 13ft 14s 16 18 mph 993.7mb 53f 48f
8:00 12ft 13s 11 16 mph 994.1mb 50f 47f
7:00 12.5ft 14s 11 16 mph 994.3mb 52f 47f
6:00 12ft 14s 11 16 mph 994.6mb 53f 46f
5:00 11.5ft 14s 9 11 mph 994.8mb 51f 47f
4:00 11.5ft 13s 11 13 mph 994.9mb 54f 47f
3:00 11ft 12s 7 9 mph 994.9mb 57f 48f
2:00 12ft 12s 9 11 mph 994.8mb 55f 47f
1:00 12ft 10s 7 9 mph 995.1mb 52f 48f
12:00 11.5ft 11s 9 11 mph 995.4mb 53f 47f
11:00 11ft 11s 11 16 mph 995.5mb 51f 48f
10:00 11ft 12s 7 9 mph 995.3mb 52f 48f
9:00 11ft 12s 7 9 mph 995mb 54f 47f
8:00 11.5ft 13s 4 9 mph 994.4mb 53f 47f
7:00 12.5ft 12s 9 11 mph 993.6mb 52f 47f
6:00 13.5ft 11s 9 13 mph 993.2mb 53f 47f
5:00 14.5ft 12s 4 7 mph 992.9mb 50f 47f